Showing default

HULIANWANG DIGUI-107, 66917

Orbit data source: Space-Track

HULIANWANG DIGUI-107, 66917 is a payload satellite owned by Zhongguo Xingwang (CN) in LEO that was launched on Sat, 06 Dec 2025 UTC via a CHANG ZHENG 8A launch vehicle from the Wenchang Satellite Launch Center (WSC). Payload-class satellites include a variety of spacecraft equipped with specific instruments for various scientific and technological missions. These include communications satellites like Starlink; space stations such as the ISS; scientific satellites like the Hubble; Earth observation satellites from companies like Planet Labs, Umbra, and HawkEye 360; GPS; miniature CubeSats for education and research; and military/defense satellites.

Loading next visibility...
Identifier
66917, 2025-285C
Orbit
LEO
Country
Flag of CNCN / PRC
Related business
Manufacturer
CAST
Mission
Operational Civil Communications
Bus & Motor
XINGWANG C, Unknown motor
Mass
~700 kg wet, ~700 kg dry
Launch date (UTC)
2025-12-06 (6 months ago)
Launch vehicle
CHANG ZHENG 8A
Launch site
Wenchang Satellite Launch Center (WSC)
Object type
Payload
Rocket body
Debris
Shape & HBR
Box + 2 Pan, 14.5 m
Radar Cross Section
5.935 m², Large (>1 m²)

Expand to show TLE details & history
Last TLE update: 22 hours ago

TLE from 22 hours ago
0 HULIANWANG DIGUI-107
1 66917U 25285C   26170.94087883 -.00000113  00000-0  22737-4 0  9995
2 66917  50.0009 136.1588 0001118 303.4410  56.6355 13.29324578 26421
Epoch: 2026-06-19T22:34Z
TLE epoch observation values (Epoch: 2026-06-19T22:34:51.930Z)
Latitude
-0.00004°
Longitude
-110.72025°
Altitude
1,149.355 km
Speed
7.28 km/s
True Right ascension
09h 04m 38s
True Declination
0° 00' 00"
Sunlit
Object was in daylight at epoch
Visualization orbit readout
Latitude
Unknown
Longitude
Unknown
Altitude
Unknown
Speed
Unknown
Apparent Right ascension
Unknown
Apparent Declination
Unknown
Sunlit
N/A
Visualization observer readout
Local Sidereal Time
07:14:00
Azimuth
Unknown
Elevation
Unknown
Doppler factor
Unknown
Orbital elements
Apogee altitude
1,150.859 km
Perigee altitude
1,149.176 km
Semi-major axis
7,528.154 km
Eccentricity
0.00011
Inclination
50.0009°
RAAN
136.1588°
Arg. of periapsis
303.441°
True anomaly
56.6462°
Mean anomaly
56.6355°
Eccentric anomaly
56.64085°
Mean motion
3.32285 °/min
Orbital period
108.34 mins
BSTAR
0.000022737
Loading maneuver chart data...
Computing Atmospheric mass density...
Loading historical data...
Loading historical data...
Loading historical data...
Loading historical data...
Loading historical data...
Loading historical data...
Loading historical data...

Documentation

Showing up to 5 results
|